Theta_e
340 340 338 337 338 337 340 340 340 337 335 336 334 333 335 335 335 335 335 335 334 334 334 333 334 333 331 331 331 328 329 329 329 329 329 331 330 331 331 330 330 331 331
341 341 338 338 336 330 336 339 339 338 333 336 336 335 335 335 335 335 334 332 331 331 330 330 330 331 331 330 326 324 325 326 326 326 327 327 328 330 330 329 329 329 329
341 339 337 335 334 331 329 336 337 338 333 336 335 335 334 334 333 332 332 331 331 331 330 329 328 328 328 328 327 327 324 323 323 324 324 323 325 325 326 327 327 326 326
341 336 334 332 330 330 329 325 328 336 336 334 333 331 332 331 331 332 332 331 330 330 329 329 330 328 327 324 325 325 324 322 322 322 322 323 323 326 324 323 323 322 321
340 335 333 329 328 328 328 328 326 328 332 327 328 332 331 331 331 332 331 330 330 332 332 332 331 328 323 322 321 322 322 322 321 321 322 322 322 323 322 321 320 318 319
340 336 331 328 328 326 326 328 328 328 330 332 330 331 330 331 332 331 329 329 328 328 330 330 330 323 321 318 318 317 316 317 318 319 320 320 321 321 320 318 318 318 317
340 339 331 329 329 328 328 327 329 327 328 331 329 330 329 330 331 330 329 327 324 323 328 328 325 320 312 309 311 313 315 317 318 318 319 320 320 319 318 317 317 315 316
334 338 336 331 330 328 327 329 330 329 332 331 327 329 328 329 330 330 328 324 317 317 323 323 321 313 311 309 311 313 315 317 317 317 318 319 319 318 317 316 316 315 315
331 335 334 333 332 330 330 331 330 326 329 330 328 327 327 328 329 329 326 316 315 318 320 319 317 316 311 310 310 311 313 315 316 317 318 318 319 318 317 316 315 314 313
335 334 333 332 331 331 331 330 326 322 319 325 328 328 326 326 326 325 318 313 316 320 320 319 318 317 314 311 310 310 312 315 316 317 317 318 318 317 316 315 315 314 312
329 331 332 331 328 328 327 326 326 326 324 327 327 326 323 321 320 319 315 312 313 316 320 320 319 318 314 311 309 309 310 313 315 317 317 317 317 317 316 315 314 313 312
332 331 331 325 329 328 328 327 323 327 323 321 322 324 319 317 312 311 312 312 312 312 313 318 319 318 314 311 309 309 310 312 314 316 316 316 317 316 315 314 313 312 312
330 331 330 329 328 327 325 322 320 321 323 325 322 321 318 314 310 309 310 312 312 312 312 314 316 314 312 310 309 308 309 310 313 315 316 316 316 316 315 314 313 312 311
329 330 329 328 326 324 321 320 322 323 323 323 322 321 317 312 311 310 310 311 312 313 312 311 311 310 310 309 308 308 308 310 312 314 316 316 316 316 314 314 313 312 311
326 327 327 326 325 323 321 320 320 322 323 324 321 320 317 312 312 312 311 311 312 314 313 312 310 310 309 308 307 307 308 309 311 314 315 316 316 316 315 314 314 313 311
325 326 325 327 326 324 322 321 321 323 323 322 321 322 317 313 313 314 312 312 314 316 316 314 315 313 309 308 307 306 306 308 310 312 314 316 315 316 316 315 313 312 311
324 325 324 325 325 326 324 323 325 323 323 324 324 325 318 314 313 315 315 314 315 317 317 317 315 313 310 307 307 306 306 307 307 308 310 312 315 314 314 315 314 313 311
322 323 324 324 325 326 327 326 325 326 325 325 326 324 317 315 314 315 315 316 316 317 318 318 317 315 312 310 309 307 307 307 307 307 307 307 310 313 314 315 314 314 312
321 322 322 322 324 323 322 320 323 326 325 321 324 324 320 316 315 315 316 315 316 316 317 318 318 318 316 313 312 309 308 306 307 307 307 307 307 308 311 314 315 314 313
319 320 321 321 322 322 321 320 323 318 317 320 324 324 322 316 316 315 315 315 317 317 317 317 318 318 317 316 313 311 309 307 306 306 307 307 307 307 307 311 314 314 313
319 319 320 320 320 319 319 320 320 321 321 323 323 322 321 316 316 316 316 316 317 317 319 319 319 319 318 317 315 312 311 308 307 307 306 306 306 307 307 308 310 312 312
319 319 319 319 319 319 318 320 320 318 320 322 319 319 319 317 316 316 317 320 321 322 321 321 321 321 319 317 314 310 308 310 311 309 307 306 306 306 307 307 309 310 309
318 318 318 318 318 318 318 317 318 319 319 319 320 320 321 321 320 320 320 321 322 322 323 323 323 322 320 318 316 316 308 309 307 309 309 307 306 305 306 307 307 307 307
316 318 318 317 317 317 316 316 317 319 319 318 317 317 318 319 319 319 320 320 320 322 321 322 322 322 321 318 315 315 314 311 308 310 309 308 307 306 305 306 306 305 305
315 317 316 317 316 316 316 316 317 317 318 317 316 315 316 316 316 317 317 316 316 319 319 319 321 322 322 320 318 317 313 310 309 311 311 308 307 308 307 306 306 305 305
315 316 315 315 316 316 316 315 316 316 317 316 316 316 315 315 315 315 316 316 316 315 316 318 319 321 323 322 320 318 317 313 309 309 308 309 310 309 309 308 304 307 310
Wind_Speed
18 24 27 30 25 31 30 34 35 38 40 31 33 34 33 32 33 34 35 34 34 31 28 28 29 28 27 27 27 28 28 30 28 27 26 27 26 27 27 29 30 30 29
24 24 27 29 30 32 31 33 32 37 38 34 32 34 32 31 32 34 34 36 36 33 31 30 29 28 28 27 28 29 28 28 28 27 26 25 26 27 28 27 29 29 28
28 29 30 33 33 37 35 34 32 26 35 37 34 33 31 31 33 34 36 37 36 33 31 30 30 29 28 29 29 29 30 27 28 27 26 26 26 25 24 27 28 27 26
31 33 30 32 32 32 33 35 35 29 31 35 33 32 31 32 34 34 35 36 35 33 31 31 29 29 28 27 27 28 28 26 27 28 27 27 26 26 24 24 24 25 26
24 32 34 35 31 28 30 30 30 29 27 34 33 29 31 31 33 34 36 36 34 30 27 28 26 26 27 26 27 26 26 27 27 29 28 29 26 25 25 24 24 24 24
25 27 31 30 24 20 25 32 32 30 28 33 32 30 30 29 30 36 37 35 32 29 27 26 28 27 25 25 24 25 27 28 28 29 29 27 27 23 25 24 23 24 25
26 25 27 32 25 27 27 27 39 35 35 36 40 34 30 28 30 35 35 33 31 29 28 29 31 28 26 26 26 27 28 29 29 29 28 26 25 24 23 23 24 24 24
25 27 29 33 29 26 31 31 31 36 36 36 39 35 32 29 30 33 34 32 30 30 31 32 32 29 29 28 27 26 28 28 28 29 27 25 23 23 23 23 24 23 24
22 24 27 25 29 21 24 32 35 33 31 32 36 36 34 31 31 33 35 32 30 30 33 33 32 30 30 28 26 26 25 26 27 28 26 24 22 22 22 23 23 23 23
9 15 26 30 31 24 31 40 35 34 30 36 33 35 35 34 32 33 34 32 30 31 33 32 31 29 28 26 25 25 24 24 25 25 25 23 21 22 21 21 22 22 22
2 4 11 27 22 34 31 25 33 28 30 32 34 32 34 33 32 34 34 33 32 32 32 30 29 27 25 24 23 22 22 23 24 24 24 22 21 20 20 20 21 20 21
6 11 25 30 40 43 37 40 37 29 31 27 30 32 33 33 31 33 35 33 31 31 30 30 28 27 25 23 22 20 20 21 21 22 21 21 19 19 18 19 18 18 18
5 13 32 38 41 42 39 43 44 35 32 28 31 33 32 33 32 33 35 34 32 32 31 30 29 25 22 21 20 19 19 19 20 20 19 19 18 17 17 16 16 16 16
9 14 21 36 38 39 39 39 34 40 38 35 31 34 35 34 32 32 34 34 31 28 28 26 24 22 20 18 17 17 17 17 17 18 18 17 16 15 15 15 14 13 13
13 18 22 26 37 32 34 36 40 35 39 41 41 32 35 34 35 33 33 33 30 25 24 25 23 22 19 16 15 13 14 14 15 16 16 15 15 14 13 13 12 11 11
12 22 18 28 28 32 32 32 33 29 33 38 40 37 38 39 36 33 33 31 27 23 21 21 18 17 16 14 14 12 12 12 13 14 15 15 12 13 13 12 11 11 10
11 16 16 21 29 30 29 29 31 34 36 35 36 42 41 39 36 34 31 29 26 22 21 19 16 15 14 13 12 11 11 11 11 11 12 14 14 13 12 13 13 12 11
11 14 23 20 22 19 29 26 30 31 36 36 41 43 40 38 35 32 29 27 26 21 18 17 16 15 14 13 11 11 11 11 10 11 11 13 15 15 14 15 14 14 13
12 16 19 21 22 25 25 25 28 30 35 35 37 39 39 37 35 32 29 28 22 18 15 16 15 13 14 13 11 11 10 11 10 11 12 12 13 14 15 17 17 16 15
13 14 18 21 24 26 26 31 27 27 29 33 36 38 36 35 33 32 31 23 16 18 17 17 14 14 14 15 14 13 13 13 14 15 14 13 14 15 15 17 19 20 18
13 15 17 21 23 28 26 27 27 25 28 32 33 30 29 32 29 27 22 23 22 20 21 18 17 16 19 16 13 13 15 16 18 19 18 18 18 18 18 18 20 21 20
18 19 19 20 24 25 24 24 23 25 21 28 29 26 27 29 24 24 23 21 21 21 20 20 20 20 21 19 9 3 1 7 21 24 24 24 23 22 22 22 22 22 21
19 21 22 23 27 27 28 24 17 23 20 20 24 25 26 24 27 24 19 22 23 16 19 19 21 22 22 22 23 8 1 4 2 9 23 28 27 26 26 26 24 23 24
21 22 23 24 27 29 30 28 25 23 22 21 27 28 26 22 19 20 20 18 18 17 18 20 20 23 24 22 21 25 18 6 4 2 7 12 21 30 28 26 28 24 25
23 27 25 26 28 30 31 31 29 27 26 27 25 26 30 28 31 27 23 19 20 21 24 24 25 27 27 28 29 16 26 17 12 5 3 6 9 18 27 26 30 27 23
25 28 25 26 32 32 34 34 35 33 34 32 28 28 30 31 33 31 29 26 26 24 25 28 29 30 31 31 32 30 23 11 16 10 5 9 10 11 15 20 25 25 25
Wind_Direction
158 157 159 156 154 140 135 133 143 153 151 150 148 144 141 142 139 136 132 129 126 120 119 118 117 116 117 111 107 108 107 104 102 96 94 90 89 87 86 86 86 82 80
160 156 154 149 145 141 134 132 137 146 147 149 149 148 146 146 141 138 135 130 124 122 122 121 119 117 112 109 106 109 107 104 105 101 98 92 91 88 87 88 87 83 81
166 157 155 152 149 144 136 132 136 139 152 154 154 147 147 147 141 136 131 126 124 123 122 119 119 116 113 111 111 110 110 103 105 97 95 93 92 92 91 82 82 82 78
169 168 162 150 146 143 142 142 145 143 145 152 151 150 149 147 139 135 130 126 124 123 123 120 114 115 114 113 117 117 116 108 111 106 102 99 96 93 93 92 86 84 84
172 178 165 166 165 158 151 149 146 149 158 161 155 148 147 144 140 137 132 129 128 127 126 129 123 118 114 117 119 120 118 117 114 109 105 102 102 95 93 93 92 90 89
175 179 182 188 193 191 175 151 152 155 166 160 148 151 148 145 143 137 133 131 128 128 131 131 131 125 121 121 123 123 120 118 116 112 108 106 103 103 101 99 95 93 90
187 180 178 185 174 175 178 180 169 166 167 161 151 151 146 143 143 137 135 130 131 130 131 130 131 126 122 119 120 122 118 116 112 110 107 107 106 106 103 100 99 95 92
197 194 185 192 197 193 186 173 164 169 167 156 147 149 145 144 143 140 137 138 134 134 137 132 130 125 119 115 116 117 117 117 114 111 109 107 107 106 105 103 101 97 94
206 200 189 192 187 195 180 167 165 162 158 154 150 148 147 147 146 146 145 138 133 137 143 137 132 126 121 116 116 116 118 117 114 114 114 111 109 107 105 106 102 99 96
212 229 230 225 197 164 152 157 153 155 163 162 152 152 152 153 154 151 143 135 130 135 144 140 135 129 123 120 117 116 119 118 115 117 116 116 115 112 111 109 108 105 101
206 124 180 181 188 186 153 154 161 162 166 156 153 154 154 154 154 150 143 138 132 132 142 142 138 132 126 122 118 117 119 121 121 122 121 122 120 118 115 114 113 110 104
184 155 152 156 152 161 166 164 159 159 165 164 155 161 157 156 152 148 146 142 134 133 138 145 143 142 135 130 127 124 121 123 125 125 127 128 127 125 124 120 117 115 111
109 152 151 153 159 161 161 159 159 161 160 160 166 163 160 156 151 148 145 142 137 136 135 141 144 141 139 134 134 130 127 128 131 134 136 134 133 132 130 128 126 122 119
167 172 159 160 158 159 158 159 160 164 164 163 169 170 164 159 153 155 148 147 144 137 136 137 143 139 141 138 140 140 136 136 138 143 143 141 139 137 136 137 140 137 128
159 163 154 155 158 160 166 166 165 168 172 171 168 177 170 165 165 161 152 152 148 144 142 142 140 141 141 144 146 145 147 147 149 151 149 152 152 147 143 142 150 149 146
173 166 163 161 161 164 166 168 170 177 171 176 176 184 179 173 169 165 158 157 154 149 147 148 139 139 142 152 157 161 158 160 164 162 162 166 166 163 161 160 163 162 164
172 183 187 157 170 163 165 176 176 179 180 180 185 188 181 176 174 169 165 163 159 152 148 145 150 142 149 158 165 167 171 174 174 172 174 176 182 183 187 186 182 179 183
173 179 191 174 168 171 177 178 183 185 186 188 190 185 181 180 177 174 169 166 166 156 157 161 163 158 165 169 177 182 183 191 188 187 191 194 199 199 200 207 204 197 198
174 179 183 189 182 183 182 179 186 191 184 191 195 184 184 183 181 179 178 178 163 169 175 177 179 182 180 187 198 201 209 211 209 208 211 211 211 211 214 214 220 219 218
174 178 186 184 183 184 181 186 181 181 187 206 199 187 183 186 187 186 185 177 172 185 191 196 201 202 208 206 207 216 223 223 224 227 230 229 227 226 224 221 223 227 228
173 181 189 181 183 179 168 163 169 179 198 205 188 175 192 188 188 197 187 193 193 197 206 211 210 214 219 217 216 228 237 238 238 239 241 242 239 236 234 232 227 228 233
172 178 180 181 188 191 186 177 175 182 165 175 176 188 201 192 188 199 197 196 204 210 216 223 227 223 222 218 197 187 292 256 243 243 242 244 246 243 240 237 233 232 237
177 181 184 188 189 190 190 188 187 185 169 171 176 194 193 187 196 203 209 208 219 217 225 231 234 231 230 221 216 205 133 230 301 239 242 246 248 246 244 242 238 239 246
190 180 188 196 197 194 193 191 191 186 188 187 190 206 197 194 203 217 218 231 237 234 242 244 244 239 232 223 221 228 238 229 191 293 244 245 247 246 247 244 243 244 254
191 185 191 200 198 196 193 199 197 193 198 204 207 207 205 211 218 216 222 235 246 247 249 255 253 244 241 236 233 225 229 236 230 207 245 230 229 243 243 244 244 247 257
189 189 190 192 201 202 203 204 207 203 202 211 216 220 221 226 225 230 228 238 249 255 255 258 259 256 253 248 246 238 229 218 218 208 214 231 243 255 242 248 240 248 260